Showing default

IRIDIUM 104, 41922

Orbit data source: Space-Track

IRIDIUM 104, 41922 is a payload satellite owned by Iridium (US) in LEO that was launched on Sat, 14 Jan 2017 UTC via an FALCON 9 launch vehicle from the Air Force Western Test Range (AFWTR). Payload-class satellites include a variety of spacecraft equipped with specific instruments for various scientific and technological missions. These include communications satellites like Starlink; space stations such as the ISS; scientific satellites like the Hubble; Earth observation satellites from companies like Planet Labs, Umbra, and HawkEye 360; GPS; miniature CubeSats for education and research; and military/defense satellites.

Loading next visibility...
Identifier
41922, 2017-003F
Orbit
LEO
Country
Flag of USUS
Related business
Manufacturer
OATK SSG Gilbert
Mission
Operational Commercial Communications
Bus & Motor
ELITEBUS, Unknown motor
Mass
860 kg wet, 700 kg dry
Launch date (UTC)
2017-01-14 (9 years ago)
Launch vehicle
FALCON 9
Launch site
Air Force Western Test Range (AFWTR)
Object type
Payload
Rocket body
Debris
Shape & HBR
Trap Box + 2 Pan, 4.8 m
Radar Cross Section
10.154 m², Large (>1 m²)

Expand to show TLE details & history
Last TLE update: 8 hours ago

TLE from 8 hours ago
0 IRIDIUM 104
1 41922U 17003F   26035.37039764  .00000375  00000-0  12701-3 0  9993
2 41922  86.4023 143.9952 0002443 101.4573 258.6898 14.34218704474230
Epoch: 2026-02-04T08:53Z
TLE epoch observation values (Epoch: 2026-02-04T08:53:22.356Z)
Latitude
0.00007°
Longitude
-123.8859°
Altitude
781.058 km
Speed
7.463 km/s
True Right ascension
09h 35m 58s
True Declination
0° 00' 00"
Sunlit
Object was in full shadow at epoch
Visualization orbit readout
Latitude
Unknown
Longitude
Unknown
Altitude
Unknown
Speed
Unknown
Apparent Right ascension
Unknown
Apparent Declination
Unknown
Sunlit
N/A
Visualization observer readout
Local Sidereal Time
19:04:41
Azimuth
Unknown
Elevation
Unknown
Doppler factor
Unknown
Orbital elements
Apogee altitude
776.376 km
Perigee altitude
772.881 km
Semi-major axis
7,152.765 km
Eccentricity
0.00024
Inclination
86.4023°
RAAN
143.9952°
Arg. of periapsis
101.4573°
True anomaly
258.66235°
Mean anomaly
258.6898°
Eccentric anomaly
258.67608°
Mean motion
3.58783 °/min
Orbital period
100.34 mins
BSTAR
0.00012701
Loading maneuver chart data...
Computing Atmospheric mass density...
Loading historical data...
Loading historical data...
Loading historical data...
Loading historical data...
Loading historical data...
Loading historical data...
Loading historical data...

Documentation

Showing up to 5 results
|